Omaha Offutt, NE

9:25 AM CDT on June 26, 2017 (GMT -0500)
Offutt Air Force Base

Weather History for KOFF - January, 2012

Change the Weather History Date:

Thursday, January 26, 2012

  Actual Average Record
Temperature  
Mean Temperature 32 °F -  
Max Temperature 48 °F 31 °F 68 °F (2002)
Min Temperature 17 °F 15 °F -2 °F (1997)
Degree Days  
Heating Degree Days 32    
Moisture  
Dew Point 24 °F    
Average Humidity 95    
Maximum Humidity 100    
Minimum Humidity 54    
Precipitation  
Precipitation 0.00 in - - ()
Sea Level Pressure  
Sea Level Pressure 29.93 in    
Wind  
Wind Speed 3 mph (West)    
Max Wind Speed 24 mph    
Max Gust Speed 31 mph    
Visibility 5 miles    
Events Fog    
Averages and records for this station are not official NWS values.
T = Trace of Precipitation, MM = Missing Value Source: NWS Daily Summary

Daily Weather History Graph

Daily Weather History Graph

Search for Another Location

Airport or City:

Trip Planner

Search our weather history database for the weather conditions in past years. The results will help you decide how hot, cold, wet, or windy it might be!

Date:

Astronomy

Jan. 26, 2012 Rise Set
Actual Time 7:40 AM CST 5:32 PM CST
Civil Twilight 7:10 AM CST 6:02 PM CST
Nautical Twilight 6:37 AM CST 6:35 PM CST
Astronomical Twilight 6:04 AM CST 7:07 PM CST
Moon 9:05 AM CST 9:28 PM CST
Length of Visible Light 10h 51m
Length of Day
9h 52m
Waxing Crescent, 12% of the Moon is Illuminated
Jan 26
Waxing Crescent
Jan 30
First Quarter
Feb 7
Full
Feb 14
Last Quarter
Feb 21
New

Hourly Weather History & Observations

Time (CST) Temp. Windchill Dew Point Humidity Pressure Visibility Wind Dir Wind Speed Gust Speed Precip Events Conditions
12:02 AM 23.0 °F - 23.0 °F 100% 29.95 in 3.0 mi Calm Calm - N/A   Clear
12:03 AM 23.0 °F - 23.0 °F 100% 29.95 in 3.0 mi Calm Calm - N/A   Clear
12:13 AM 21.2 °F - 21.2 °F 100% 29.95 in 3.0 mi Calm Calm - N/A   Clear
12:16 AM 23.0 °F - 21.2 °F 93% 29.95 in 3.0 mi Calm Calm - N/A   Clear
12:37 AM 23.0 °F 18.4 °F 23.0 °F 100% 29.94 in 2.5 mi South 3.5 mph - N/A   Clear
12:44 AM 23.0 °F 18.4 °F 23.0 °F 100% 29.94 in 2.0 mi South 3.5 mph - N/A   Clear
12:48 AM 23.0 °F 18.4 °F 23.0 °F 100% 29.94 in 3.0 mi SSW 3.5 mph - N/A   Clear
12:55 AM 23.0 °F - 23.0 °F 100% 29.93 in 4.0 mi Calm Calm - N/A   Clear
1:06 AM 21.2 °F - 21.2 °F 100% 29.92 in 5.0 mi Calm Calm - N/A   Clear
1:19 AM 19.4 °F - 19.4 °F 100% 29.93 in 4.0 mi Calm Calm - N/A   Clear
1:51 AM 21.2 °F - 21.2 °F 100% 29.93 in 2.5 mi Calm Calm - N/A   Partly Cloudy
1:53 AM 21.2 °F - 21.2 °F 100% 29.93 in 1.8 mi Calm Calm - N/A   Partly Cloudy
1:54 AM 21.2 °F - 21.2 °F 100% 29.93 in 1.5 mi Calm Calm - N/A   Partly Cloudy
1:55 AM 21.9 °F - 21.9 °F 100% 29.93 in 1.2 mi Calm Calm - N/A   Partly Cloudy
1:56 AM 21.2 °F - 21.2 °F 100% 29.93 in 1.0 mi Calm Calm - N/A   Partly Cloudy
1:57 AM 23.0 °F - 23.0 °F 100% 29.93 in 1.0 mi Calm Calm - N/A   Partly Cloudy
1:58 AM 23.0 °F - 23.0 °F 100% 29.94 in 0.8 mi Calm Calm - N/A   Partly Cloudy
1:59 AM 23.0 °F - 23.0 °F 100% 29.93 in 0.8 mi Calm Calm - N/A   Partly Cloudy
2:02 AM 23.0 °F - 23.0 °F 100% 29.93 in 0.8 mi Calm Calm - N/A   Partly Cloudy
2:06 AM 23.0 °F - 23.0 °F 100% 29.93 in 0.5 mi Calm Calm - N/A Fog Light Freezing Fog
2:09 AM 21.2 °F 16.4 °F 21.2 °F 100% 29.93 in 0.5 mi South 3.5 mph - N/A Fog Light Freezing Fog
2:16 AM 19.4 °F 14.3 °F 19.4 °F 100% 29.94 in 0.5 mi SSW 3.5 mph - N/A Fog Light Freezing Fog
2:17 AM 19.4 °F 14.3 °F 19.4 °F 100% 29.94 in 0.5 mi South 3.5 mph - N/A Fog Light Freezing Fog
2:18 AM 19.4 °F 14.3 °F 19.4 °F 100% 29.94 in 0.8 mi South 3.5 mph - N/A   Clear
2:21 AM 21.2 °F - 21.2 °F 100% 29.94 in 1.0 mi Calm Calm - N/A   Clear
2:22 AM 21.2 °F - 21.2 °F 100% 29.94 in 1.5 mi Calm Calm - N/A   Clear
2:23 AM 21.2 °F - 21.2 °F 100% 29.94 in 2.5 mi Calm Calm - N/A   Clear
2:24 AM 21.2 °F - 21.2 °F 100% 29.94 in 3.0 mi Calm Calm - N/A   Clear
2:55 AM 19.2 °F - 19.2 °F 100% 29.95 in 3.0 mi Calm Calm - N/A   Clear
3:11 AM 19.4 °F - 19.4 °F 100% 29.94 in 2.5 mi Calm Calm - N/A   Clear
3:18 AM 19.4 °F - 19.4 °F 100% 29.94 in 3.0 mi Calm Calm - N/A   Clear
3:24 AM 19.4 °F - 19.4 °F 100% 29.95 in 2.5 mi Calm Calm - N/A   Clear
3:29 AM 21.2 °F - 21.2 °F 100% 29.95 in 3.0 mi Calm Calm - N/A   Clear
3:54 AM 21.2 °F - 21.2 °F 100% 29.94 in 5.0 mi Calm Calm - N/A   Clear
3:55 AM 20.5 °F - 20.5 °F 100% 29.93 in 5.0 mi Calm Calm - N/A   Clear
4:08 AM 17.6 °F 12.3 °F 17.6 °F 100% 29.95 in 4.0 mi West 3.5 mph - N/A   Clear
4:31 AM 19.4 °F 14.3 °F 19.4 °F 100% 29.94 in 6.0 mi West 3.5 mph - N/A   Clear
4:55 AM 20.7 °F - 20.7 °F 100% 29.94 in 7.0 mi Calm Calm - N/A   Clear
4:59 AM 21.2 °F - 21.2 °F 100% 29.93 in 8.0 mi Calm Calm - N/A   Clear
5:21 AM 21.2 °F 16.4 °F 21.2 °F 100% 29.94 in 8.0 mi SSE 3.5 mph - N/A   Clear
5:54 AM 19.4 °F 14.3 °F 19.4 °F 100% 29.94 in 8.0 mi WNW 3.5 mph - N/A   Partly Cloudy
5:55 AM 19.9 °F 14.9 °F 19.9 °F 100% 29.94 in 9.0 mi WNW 3.5 mph - N/A   Partly Cloudy
6:55 AM 25.2 °F - 25.2 °F 100% 29.96 in 10.0 mi Calm Calm - N/A   Mostly Cloudy
7:55 AM 26.6 °F 21.2 °F 26.6 °F 100% 29.95 in 10.0 mi SW 4.6 mph - N/A   Partly Cloudy
8:55 AM 26.6 °F 21.2 °F 26.6 °F 100% 29.95 in 10.0 mi WNW 4.6 mph - N/A   Clear
9:55 AM 39.0 °F 34.0 °F 39.0 °F 100% 29.94 in 10.0 mi NW 6.9 mph - N/A   Clear
10:55 AM 47.1 °F - 33.3 °F 59% 29.92 in 10.0 mi NW 17.3 mph 26.5 mph N/A   Partly Cloudy
11:55 AM 48.0 °F - 32.0 °F 54% 29.90 in 10.0 mi NW 24.2 mph 31.1 mph N/A   Scattered Clouds
12:55 PM 48.6 °F - 34.5 °F 58% 29.87 in 10.0 mi NW 20.7 mph 26.5 mph N/A   Mostly Cloudy
1:55 PM 48.0 °F - 34.3 °F 59% 29.88 in 10.0 mi NNW 17.3 mph 28.8 mph N/A   Mostly Cloudy
2:55 PM 47.8 °F - 34.7 °F 60% 29.89 in 10.0 mi NNW 16.1 mph 27.6 mph N/A   Clear
3:55 PM 45.9 °F 38.0 °F 33.1 °F 61% 29.90 in 10.0 mi NNW 20.7 mph 24.2 mph N/A   Clear
4:55 PM 43.3 °F 36.5 °F 34.0 °F 70% 29.90 in 10.0 mi NNW 13.8 mph - N/A   Clear
5:55 PM 38.8 °F 31.2 °F 35.1 °F 86% 29.92 in 10.0 mi NW 12.7 mph - N/A   Clear
6:55 PM 33.8 °F 25.3 °F 33.6 °F 99% 29.93 in 10.0 mi NW 11.5 mph - N/A   Clear
7:55 PM 31.3 °F 26.6 °F 31.1 °F 99% 29.94 in 10.0 mi NNW 4.6 mph - N/A   Clear
8:55 PM 30.0 °F 22.4 °F 29.7 °F 99% 29.95 in 10.0 mi NW 8.1 mph - N/A   Clear
9:55 PM 29.1 °F 23.0 °F 29.1 °F 100% 29.93 in 10.0 mi West 5.8 mph - N/A   Clear
10:55 PM 22.5 °F 16.3 °F 22.5 °F 100% 29.91 in 10.0 mi WNW 4.6 mph - N/A   Clear
11:55 PM 26.2 °F 18.6 °F 26.2 °F 100% 29.93 in 10.0 mi WNW 6.9 mph - N/A   Clear